Location: Key Biscayne
(25.6930°N, 80.1630°W)
Time: 07:08:48
(UTC-04:00)

ISS - Visible Passes

Search period start: 19 July 2018 00:00
Search period end: 29 July 2018 00:00
Orbit: 402 x 408 km, 51.6° (Epoch: 19 July)

Date Brightness Start Highest point End Pass type
(mag) Time Alt. Az. Time Alt. Az. Time Alt. Az.
19 Jul -2.8 21:33:12 10° WSW 21:36:22 48° NW 21:39:32 10° NNE visible
20 Jul -2.3 05:43:39 10° NNW 05:46:47 40° NE 05:49:53 10° ESE visible
20 Jul -3.9 20:41:04 10° SSW 20:44:17 63° SE 20:47:30 10° NE visible
21 Jul -0.9 04:52:09 10° N 04:54:35 19° NE 04:57:00 10° E visible
21 Jul -0.6 21:26:29 10° W 21:28:42 17° NW 21:30:55 10° N visible
22 Jul -3.8 05:35:44 10° NW 05:38:57 54° SW 05:42:09 10° SSE visible
22 Jul -1.9 20:33:27 10° WSW 20:36:28 35° NW 20:39:30 10° NNE visible
23 Jul -1.5 04:49:08 18° ESE 04:49:08 18° ESE 04:50:05 10° SE visible
